Change the Weather History Date:

Friday, January 24, 2014

  Actual Average (KRFD) Record (KRFD)
Temperature  
Mean Temperature 10 °F 22 °F  
Max Temperature 28 °F 30 °F 61 °F (1909)
Min Temperature -9 °F 13 °F -20 °F (1936)
Degree Days  
Heating Degree Days 56 44  
Month to date heating degree days 1050  
Since 1 July heating degree days 3611  
Cooling Degree Days 0 0  
Month to date cooling degree days 0  
Year to date cooling degree days 0  
Moisture  
Dew Point 5 °F    
Average Humidity 74    
Maximum Humidity 94    
Minimum Humidity 63    
Precipitation  
Precipitation 0.00 in 0.04 in 2.00 in (1938)
Month to date precipitation 1.08  
Year to date precipitation 1.08  
Snow  
Snow 0.00 in 0.30 in 3.00 in (1957)
Month to date snowfall 7.9  
Since 1 July snowfall 21.0  
Snow Depth -    
Sea Level Pressure  
Sea Level Pressure 29.96 in    
Wind  
Wind Speed 17 mph (SW)    
Max Wind Speed 32 mph    
Max Gust Speed 40 mph    
Visibility 7 miles    
Events Snow    
T = Trace of Precipitation, MM = Missing Value Source: NWS Daily Summary

Daily Weather History Graph

Daily Weather History Graph

Search for Another Location

Airport or City:

Trip Planner

Search our weather history database for the weather conditions in past years. The results will help you decide how hot, cold, wet, or windy it might be!

Date:

Astronomy

Jan. 24, 2014 Rise Set
Actual Time 7:16 AM CST 5:01 PM CST
Civil Twilight 6:45 AM CST 5:31 PM CST
Nautical Twilight 6:12 AM CST 6:05 PM CST
Astronomical Twilight 5:39 AM CST 6:38 PM CST
Moon 12:41 AM CST (1/24) 11:20 AM CST (1/24)
Length of Visible Light 10h 45m
Length of Day
9h 45m
Last Quarter, 44% of the Moon is Illuminated
Jan 24
Last Quarter
Jan 30
New
Feb 6
First Quarter
Feb 14
Full
Feb 22
Last Quarter

Hourly Weather History & Observations

Time (CST) Temp. Windchill Dew Point Humidity Pressure Visibility Wind Dir Wind Speed Gust Speed Precip Events Conditions
12:15 AM -8.9 °F -25.0 °F -14.8 °F 75% 30.51 in 10.0 mi SW 8.1 mph - N/A   Clear
12:35 AM -9.4 °F -26.8 °F -14.4 °F 78% 30.51 in 10.0 mi SW 9.2 mph - N/A   Clear
12:55 AM -9.4 °F -24.3 °F -14.8 °F 77% 30.50 in 10.0 mi SW 6.9 mph - N/A   Clear
1:15 AM -9.6 °F -25.8 °F -14.6 °F 78% 30.48 in 10.0 mi SW 8.1 mph - N/A   Clear
1:35 AM -8.9 °F -26.2 °F -13.4 °F 81% 30.47 in 10.0 mi SW 9.2 mph - N/A   Clear
1:55 AM -8.5 °F -25.7 °F -13.2 °F 80% 30.46 in 10.0 mi SW 9.2 mph - N/A   Clear
2:15 AM -7.6 °F -24.6 °F -11.7 °F 82% 30.46 in 10.0 mi SW 9.2 mph - N/A   Clear
2:35 AM -6.7 °F -24.5 °F -11.0 °F 81% 30.45 in 10.0 mi SW 10.4 mph - N/A   Clear
2:55 AM -6.0 °F -21.5 °F -10.7 °F 80% 30.44 in 10.0 mi South 8.1 mph - N/A   Clear
3:15 AM -7.6 °F -25.7 °F -12.6 °F 79% 30.42 in 10.0 mi South 10.4 mph - N/A   Clear
3:35 AM -7.6 °F -25.7 °F -12.3 °F 80% 30.42 in 10.0 mi South 10.4 mph - N/A   Clear
3:55 AM -7.2 °F -25.2 °F -12.1 °F 79% 30.40 in 10.0 mi South 10.4 mph - N/A   Clear
4:15 AM -6.7 °F -25.5 °F -11.2 °F 81% 30.38 in 10.0 mi SSW 11.5 mph - N/A   Clear
4:35 AM -4.9 °F -24.1 °F -9.4 °F 81% 30.36 in 10.0 mi SSW 12.7 mph - N/A   Clear
4:55 AM -3.5 °F -23.8 °F -8.1 °F 80% 30.34 in 10.0 mi SSW 15.0 mph - N/A   Clear
5:15 AM -2.4 °F -23.7 °F -7.8 °F 78% 30.33 in 10.0 mi SSW 17.3 mph - N/A   Clear
5:35 AM -1.3 °F -22.3 °F -6.7 °F 78% 30.31 in 10.0 mi SSW 17.3 mph - N/A   Clear
5:55 AM -1.3 °F -21.7 °F -7.4 °F 75% 30.30 in 10.0 mi SSW 16.1 mph - N/A   Clear
6:15 AM -0.4 °F -22.8 °F -6.7 °F 75% 30.27 in 10.0 mi SSW 20.7 mph 24.2 mph N/A   Clear
6:35 AM -0.4 °F -22.3 °F -6.7 °F 75% 30.24 in 10.0 mi SSW 19.6 mph - N/A   Clear
6:55 AM 0.3 °F -21.9 °F -5.8 °F 75% 30.23 in 10.0 mi SSW 20.7 mph - N/A   Clear
7:15 AM 1.9 °F -20.7 °F -4.9 °F 73% 30.20 in 7.0 mi SSW 23.0 mph - N/A   Clear
7:35 AM 2.3 °F -19.8 °F -4.4 °F 74% 30.19 in 5.0 mi SSW 21.9 mph - N/A   Haze
7:55 AM 3.2 °F -19.0 °F -3.6 °F 73% 30.17 in 5.0 mi SSW 23.0 mph - N/A   Haze
8:15 AM 3.9 °F -18.1 °F -2.7 °F 74% 30.14 in 3.0 mi SSW 23.0 mph - N/A   Haze
8:35 AM 5.2 °F -16.4 °F -1.8 °F 73% 30.12 in 5.0 mi SSW 23.0 mph - N/A   Haze
8:55 AM 7.3 °F -15.5 °F -1.1 °F 68% 30.10 in 3.0 mi SSW 28.8 mph 33.4 mph N/A   Haze
9:15 AM 8.4 °F -13.3 °F -0.2 °F 68% 30.09 in 2.0 mi SSW 26.5 mph 35.7 mph N/A   Haze
9:35 AM 9.1 °F -13.1 °F 0.3 °F 67% 30.06 in 2.5 mi SSW 28.8 mph 34.5 mph N/A   Haze
9:55 AM 10.4 °F -11.0 °F 1.9 °F 69% 30.03 in 2.0 mi SSW 27.6 mph 40.3 mph N/A   Haze
10:15 AM 11.3 °F -10.1 °F 3.2 °F 70% 30.00 in 2.0 mi SSW 28.8 mph 38.0 mph N/A   Haze
10:35 AM 12.6 °F -7.8 °F 3.2 °F 66% 30.00 in 4.0 mi SSW 26.5 mph 33.4 mph N/A   Haze
10:55 AM 13.8 °F -6.4 °F 4.3 °F 66% 29.97 in 2.5 mi SSW 27.6 mph 36.8 mph N/A   Haze
11:15 AM 15.6 °F -4.6 °F 5.7 °F 65% 29.95 in 4.0 mi SW 29.9 mph 35.7 mph N/A   Haze
11:35 AM 16.0 °F -4.1 °F 6.6 °F 67% 29.92 in 2.5 mi SW 29.9 mph 39.1 mph N/A   Haze
11:55 AM 16.5 °F -3.1 °F 6.8 °F 66% 29.91 in 4.0 mi SW 28.8 mph 35.7 mph N/A   Haze
12:15 PM 17.6 °F -1.9 °F 7.5 °F 65% 29.89 in 5.0 mi SW 29.9 mph 35.7 mph N/A   Haze
12:35 PM 18.3 °F 0.3 °F 7.9 °F 64% 29.89 in 10.0 mi SW 25.3 mph 29.9 mph N/A   Mostly Cloudy
12:55 PM 18.7 °F 0.1 °F 8.6 °F 65% 29.86 in 10.0 mi SW 27.6 mph 33.4 mph N/A   Mostly Cloudy
1:15 PM 19.2 °F 0.3 °F 9.5 °F 66% 29.83 in 2.0 mi SW 29.9 mph 40.3 mph N/A   Haze
1:35 PM 19.9 °F 0.7 °F 10.2 °F 66% 29.81 in 3.0 mi SW 32.2 mph 39.1 mph N/A   Haze
1:55 PM 20.1 °F 1.2 °F 10.2 °F 66% 29.81 in 5.0 mi SW 31.1 mph 38.0 mph N/A   Haze
2:15 PM 20.3 °F 2.3 °F 10.6 °F 66% 29.79 in 4.0 mi SW 27.6 mph 39.1 mph N/A   Haze
2:35 PM 20.8 °F 4.0 °F 10.9 °F 66% 29.78 in 7.0 mi SW 24.2 mph 35.7 mph N/A   Overcast
2:55 PM 21.2 °F 4.5 °F 11.3 °F 66% 29.78 in 7.0 mi SW 24.2 mph 32.2 mph N/A   Overcast
3:15 PM 21.6 °F 5.7 °F 11.7 °F 66% 29.77 in 10.0 mi SW 21.9 mph 33.4 mph N/A   Overcast
3:35 PM 22.1 °F 6.0 °F 12.2 °F 66% 29.75 in 10.0 mi SW 23.0 mph 31.1 mph N/A   Overcast
3:55 PM 22.6 °F 6.8 °F 13.1 °F 67% 29.74 in 10.0 mi SW 23.0 mph 28.8 mph N/A   Overcast
4:15 PM 23.0 °F 7.6 °F 13.3 °F 66% 29.73 in 10.0 mi SW 21.9 mph 26.5 mph N/A   Overcast
4:35 PM 23.4 °F 7.7 °F 13.5 °F 66% 29.71 in 10.0 mi SW 23.0 mph 29.9 mph N/A   Overcast
4:55 PM 23.9 °F 8.8 °F 13.8 °F 65% 29.71 in 10.0 mi SW 21.9 mph 27.6 mph N/A   Overcast
5:15 PM 23.9 °F 9.1 °F 14.0 °F 66% 29.69 in 10.0 mi SW 20.7 mph 27.6 mph N/A   Overcast
5:35 PM 24.4 °F 10.2 °F 14.4 °F 66% 29.70 in 10.0 mi SW 19.6 mph - N/A   Overcast
5:55 PM 24.8 °F 10.0 °F 14.7 °F 66% 29.69 in 10.0 mi SW 21.9 mph - N/A   Overcast
6:15 PM 25.3 °F 11.8 °F 15.3 °F 66% 29.68 in 10.0 mi SW 18.4 mph 24.2 mph N/A   Overcast
6:35 PM 25.7 °F 10.8 °F 15.4 °F 65% 29.67 in 10.0 mi SW 23.0 mph 27.6 mph N/A   Overcast
6:55 PM 26.6 °F 12.7 °F 15.6 °F 63% 29.67 in 10.0 mi SW 20.7 mph - N/A   Overcast
7:15 PM 26.6 °F 12.0 °F 16.0 °F 64% 29.64 in 10.0 mi SW 23.0 mph 26.5 mph N/A   Overcast
7:35 PM 25.7 °F 10.8 °F 20.3 °F 80% 29.63 in 2.0 mi SW 23.0 mph 35.7 mph N/A Snow Light Snow
7:55 PM 25.9 °F 11.4 °F 19.9 °F 78% 29.60 in 10.0 mi SW 21.9 mph - N/A   Overcast
8:15 PM 26.8 °F 12.6 °F 18.3 °F 70% 29.59 in 10.0 mi SW 21.9 mph 27.6 mph N/A   Overcast
8:35 PM 27.9 °F 12.8 °F 17.1 °F 64% 29.58 in 10.0 mi SW 26.5 mph 34.5 mph N/A   Overcast
8:55 PM 27.5 °F 12.3 °F 20.1 °F 74% 29.57 in 7.0 mi SW 26.5 mph 33.4 mph N/A   Overcast
9:15 PM 26.2 °F 11.5 °F 22.8 °F 87% 29.56 in 2.5 mi SW 23.0 mph 29.9 mph N/A Snow Light Snow
9:35 PM 26.2 °F 12.2 °F 23.7 °F 90% 29.55 in 2.5 mi SW 20.7 mph 26.5 mph N/A Snow Light Snow
9:55 PM 26.6 °F 12.0 °F 24.4 °F 92% 29.52 in 3.0 mi SW 23.0 mph 28.8 mph N/A Snow Light Snow
10:15 PM 27.1 °F 13.1 °F 25.3 °F 93% 29.51 in 2.5 mi SW 21.9 mph 26.5 mph N/A Snow Light Snow
10:35 PM 27.5 °F 12.6 °F 25.9 °F 94% 29.50 in 2.0 mi SW 25.3 mph 31.1 mph N/A Snow Light Snow
10:55 PM 28.0 °F 13.0 °F 26.4 °F 94% 29.48 in 2.0 mi SW 26.5 mph 31.1 mph N/A Snow Light Snow
11:15 PM 28.2 °F 14.2 °F 26.6 °F 94% 29.47 in 2.5 mi WSW 23.0 mph 32.2 mph N/A Snow Light Snow
11:35 PM 28.2 °F 14.2 °F 26.6 °F 94% 29.47 in 3.0 mi WSW 23.0 mph 31.1 mph N/A   Overcast
11:55 PM 28.2 °F 13.9 °F 26.6 °F 94% 29.46 in 3.0 mi WSW 24.2 mph 28.8 mph N/A   Overcast